Miscellaneous Local Product
Issued by NWS North Platte, NE

Home | Current Version | Previous Version | Text Only | Print | Product List | Glossary On
Versions: 1 2 3 4 5 6 7 8 9 10 11 12 13 14 15 16 17 18 19 20 21 22 23 24 25 26 27 28 29 30 31 32 33 34 35 36 37 38 39 40 41 42 43 44 45 46 47 48 49 50
000
AXUS43 KLBF 281010
MISLBF


WESTERN AND NORTH CENTRAL NEBRASKA HOURLY WEATHER ROUNDUP
NATIONAL WEATHER SERVICE NORTH PLATTE NE
500 AM CDT THU AUG 28 2014

***STATIONS NOT REPORTING VARIABLES SUCH AS SKY/WEATHER OR
PRESSURE ARE PROVIDED BY THE NEBRASKA DEPARTMENT OF
ROADS...RAWS...AND APRS NETWORKS...AND ARE NOT UNDER
NATIONAL WEATHER SERVICE QUALITY CONTROL***

...OBSERVATIONS IN AND NEAR THE EASTERN PANHANDLE OF NEBRASKA...

CITY           SKY/WX    TMP DP  RH WIND       PRES   REMARKS
PINE RIDGE     CLOUDY    63  62  97 NW6       29.99S
CHADRON        LGT RAIN  63  62  97 NW5       30.00F FOG
ALLIANCE       CLOUDY    63  61  93 NW5       30.02F
SIDNEY         MOCLDY    61  58  90 W14       30.04R
WHITECLAY        N/A    N/A N/A N/A NW6         N/A
RUSHVILLE        N/A     63  61  94 NW9         N/A
GORDON           N/A     67  67  99 W6          N/A
CRESCENT LAKE    N/A     63  62  96 N5          N/A
LISCO            N/A     66  62  87 W7          N/A
BIG SPRINGS      N/A     62  60  95 CALM        N/A
$$

...OBSERVATIONS IN NORTH CENTRAL NEBRASKA...

CITY           SKY/WX    TMP DP  RH WIND       PRES   REMARKS
VALENTINE      CLOUDY    68  68 100 SE5       29.94F
THEDFORD       CLOUDY    66  64  91 SW3       29.97F
AINSWORTH      CLOUDY    67  67  98 CALM      29.94F
O`NEILL        HVY RAIN  69  69  98 SE10      29.95S
ORD            LGT RAIN  69  67  93 SE8       29.93F
BROKEN BOW     CLOUDY    67  65  93 S3        29.95S
BROWNLEE         N/A     70  68  93 S7          N/A
SPRINGVIEW       N/A     68  67  96 CALM        N/A
ROSE             N/A     72  72  99 E5          N/A
NEWPORT          N/A     70  70  99 E3          N/A
SARGENT          N/A     66  65  97 CALM        N/A
COMSTOCK         N/A     73  73  99 S7          N/A
CHAMBERS         N/A     68  67  97 MISG        N/A
EWING            N/A     69  68  98 CALM        N/A
$$

...OBSERVATIONS IN SOUTHWEST NEBRASKA AND FAR NORTHEAST COLORADO...

CITY           SKY/WX    TMP DP  RH WIND       PRES   REMARKS
WRAY             N/A    N/A N/A N/A SE5       29.99F
HOLYOKE        FAIR      59  55  88 W3        29.99F
IMPERIAL       PTCLDY    59  57  93 CALM      29.96F
OGALLALA       CLOUDY    58  58  97 CALM      29.98F
NORTH PLATTE   LGT RAIN  64  63  96 CALM      29.95F
MCCOOK         MOCLDY    62  61  96 S6        29.94F
LEXINGTON      DRIZZLE   67  66  96 CALM      29.94F
PAXTON           N/A     63  61  93 N13         N/A
SUTHERLAND       N/A     61  59  92 W6          N/A
BRADY            N/A     64  62  95 CALM        N/A
GOTHENBURG       N/A     66  62  87 CALM        N/A
CALLAWAY         N/A     64  64  99 SE5         N/A
$$

...SOME WEATHER OBSERVATIONS FROM AROUND THE REGION...

CITY           SKY/WX    TMP DP  RH WIND       PRES   REMARKS
DENVER         PTCLDY    55  51  86 S10       30.14F
LARAMIE        PTCLDY    44  41  89 SE5       30.23S
CHEYENNE       PTCLDY    50  44  80 NW5       30.16F
SCOTTSBLUFF    MOCLDY    58  58 100 NW6       30.04S
RAPID CITY     CLOUDY    62  60  93 CALM      30.02R
PIERRE         LGT RAIN  67  67 100 E7        29.93F FOG
WINNER         CLOUDY    68  67  96 E8        29.93F
SIOUX FALLS    CLOUDY    67  65  93 SE10      29.99F
OMAHA          TSTM      71  68  90 SE13      29.98F
GRAND ISLAND   CLOUDY    68  66  93 SE3       29.96S
KANSAS CITY    MOCLDY    75  72  90 SE8       29.98S
WICHITA        CLOUDY    78  65  63 S9        29.95S
HAYS           MOCLDY    68  63  83 NW14      29.96R
LIBERAL        PTCLDY    70  61  73 S10       29.97S
GOODLAND       MOCLDY    58  57  97 E3        30.01F
$$



USA.gov is the U.S. government's official web portal to all federal, state and local government web resources and services.